Weather History for KFSE - February, 2014

Change the Weather History Date:

Sunday, February 23, 2014

  Actual Average Record
Temperature  
Mean Temperature 0 °F -  
Max Temperature 8 °F 25 °F 57 °F (1958)
Min Temperature -7 °F 4 °F -31 °F (1993)
Degree Days  
Heating Degree Days 64    
Moisture  
Dew Point -5 °F    
Average Humidity 75    
Maximum Humidity 92    
Minimum Humidity 62    
Precipitation  
Precipitation 0.00 in - - ()
Sea Level Pressure  
Sea Level Pressure 30.17 in    
Wind  
Wind Speed 11 mph (West)    
Max Wind Speed 22 mph    
Max Gust Speed 26 mph    
Visibility 10 miles    
Events      
Averages and records for this station are not official NWS values.
T = Trace of Precipitation, MM = Missing Value Source: NWS Daily Summary

Daily Weather History Graph

Daily Weather History Graph

Search for Another Location

Airport or City:

Trip Planner

Search our weather history database for the weather conditions in past years. The results will help you decide how hot, cold, wet, or windy it might be!

Date:

Astronomy

Feb. 23, 2014 Rise Set
Actual Time 7:14 AM CST 5:58 PM CST
Civil Twilight 6:43 AM CST 6:30 PM CST
Nautical Twilight 6:07 AM CST 7:05 PM CST
Astronomical Twilight 5:32 AM CST 7:41 PM CST
Moon 2:26 AM CST (2/23) 11:49 AM CST (2/23)
Length of Visible Light 11h 46m
Length of Day
10h 44m
Last Quarter, 38% of the Moon is Illuminated
Feb 23
Last Quarter
Mar 1
New
Mar 8
First Quarter
Mar 16
Full
Mar 23
Last Quarter

Hourly Weather History & Observations

Time (CST) Temp. Windchill Dew Point Humidity Pressure Visibility Wind Dir Wind Speed Gust Speed Precip Events Conditions
12:15 AM -2.2 °F -18.9 °F -7.6 °F 78% 30.06 in 10.0 mi West 10.4 mph - N/A   Clear
12:35 AM -2.2 °F -18.0 °F -7.6 °F 78% 30.07 in 10.0 mi West 9.2 mph - N/A   Clear
12:56 AM -2.2 °F -18.0 °F -7.6 °F 78% 30.07 in 10.0 mi West 9.2 mph - N/A   Clear
1:15 AM -2.2 °F -18.9 °F -7.6 °F 78% 30.07 in 10.0 mi West 10.4 mph - N/A   Clear
1:35 AM -2.2 °F -16.8 °F -7.6 °F 78% 30.07 in 10.0 mi West 8.1 mph - N/A   Clear
1:55 AM -4.0 °F -19.0 °F -9.4 °F 78% 30.08 in 10.0 mi WSW 8.1 mph - N/A   Clear
2:15 AM -5.8 °F -21.2 °F -9.4 °F 84% 30.08 in 10.0 mi WSW 8.1 mph - N/A   Clear
2:35 AM -5.8 °F -18.4 °F -9.4 °F 84% 30.08 in 10.0 mi WSW 5.8 mph - N/A   Clear
2:55 AM -7.6 °F -22.1 °F -11.2 °F 84% 30.09 in 10.0 mi WSW 6.9 mph - N/A   Clear
3:15 AM -7.6 °F -22.1 °F -9.4 °F 92% 30.09 in 10.0 mi WSW 6.9 mph - N/A   Clear
3:35 AM -7.6 °F -20.6 °F -11.2 °F 84% 30.09 in 10.0 mi West 5.8 mph - N/A   Clear
3:55 AM -5.8 °F -19.9 °F -9.4 °F 84% 30.09 in 10.0 mi West 6.9 mph - N/A   Scattered Clouds
4:15 AM -5.8 °F -22.4 °F -9.4 °F 84% 30.10 in 10.0 mi West 9.2 mph - N/A   Mostly Cloudy
4:35 AM -4.0 °F -23.0 °F -7.6 °F 85% 30.10 in 10.0 mi West 12.7 mph - N/A   Overcast
4:55 AM -2.2 °F -16.8 °F -7.6 °F 78% 30.10 in 10.0 mi West 8.1 mph - N/A   Mostly Cloudy
5:15 AM -2.2 °F -15.6 °F -7.6 °F 78% 30.10 in 10.0 mi West 6.9 mph - N/A   Clear
5:35 AM -4.0 °F -17.8 °F -7.6 °F 85% 30.11 in 10.0 mi West 6.9 mph - N/A   Clear
5:55 AM -4.0 °F -21.2 °F -7.6 °F 85% 30.12 in 10.0 mi WSW 10.4 mph - N/A   Clear
6:15 AM -2.2 °F -16.8 °F -7.6 °F 78% 30.12 in 10.0 mi WSW 8.1 mph - N/A   Clear
6:35 AM -2.2 °F -16.8 °F -7.6 °F 78% 30.12 in 10.0 mi WSW 8.1 mph - N/A   Clear
6:56 AM -5.8 °F -19.9 °F -9.4 °F 84% 30.13 in 10.0 mi WSW 6.9 mph - N/A   Clear
7:15 AM -4.0 °F -16.3 °F -7.6 °F 85% 30.13 in 10.0 mi West 5.8 mph - N/A   Clear
7:35 AM -2.2 °F -16.8 °F -5.8 °F 85% 30.13 in 10.0 mi WSW 8.1 mph - N/A   Clear
7:56 AM -2.2 °F -16.8 °F -5.8 °F 85% 30.13 in 10.0 mi West 8.1 mph - N/A   Clear
8:15 AM 1.4 °F -13.5 °F -5.8 °F 72% 30.14 in 10.0 mi West 9.2 mph - N/A   Clear
8:35 AM 3.2 °F -13.9 °F -4.0 °F 72% 30.14 in 10.0 mi West 12.7 mph - N/A   Clear
8:56 AM 3.2 °F -15.9 °F -2.2 °F 78% 30.15 in 10.0 mi West 16.1 mph - N/A   Clear
9:15 AM 5.0 °F -14.7 °F -2.2 °F 72% 30.15 in 10.0 mi WNW 18.4 mph 21.9 mph N/A   Clear
9:35 AM 6.8 °F -11.3 °F -2.2 °F 67% 30.15 in 10.0 mi WNW 16.1 mph - N/A   Clear
9:56 AM 6.8 °F -11.3 °F -2.2 °F 67% 30.16 in 10.0 mi West 16.1 mph 19.6 mph N/A   Clear
10:15 AM 6.8 °F -11.8 °F -2.2 °F 67% 30.16 in 10.0 mi West 17.3 mph 23.0 mph N/A   Clear
10:35 AM 6.8 °F -11.8 °F -2.2 °F 67% 30.17 in 10.0 mi WNW 17.3 mph 21.9 mph N/A   Clear
10:55 AM 6.8 °F -10.7 °F -2.2 °F 67% 30.17 in 10.0 mi WNW 15.0 mph 23.0 mph N/A   Clear
11:15 AM 6.8 °F -11.8 °F -2.2 °F 67% 30.18 in 7.0 mi WNW 17.3 mph 23.0 mph N/A   Clear
11:35 AM 6.8 °F -13.8 °F -2.2 °F 67% 30.19 in 7.0 mi WNW 21.9 mph 26.5 mph N/A   Clear
11:55 AM 6.8 °F -12.4 °F -2.2 °F 67% 30.19 in 10.0 mi WNW 18.4 mph 24.2 mph N/A   Clear
12:15 PM 6.8 °F -11.3 °F -2.2 °F 67% 30.19 in 10.0 mi West 16.1 mph 23.0 mph N/A   Clear
12:35 PM 6.8 °F -13.8 °F -2.2 °F 67% 30.20 in 7.0 mi WNW 21.9 mph 25.3 mph N/A   Clear
12:55 PM 6.8 °F -11.3 °F -2.2 °F 67% 30.20 in 10.0 mi WNW 16.1 mph 23.0 mph N/A   Clear
1:15 PM 8.6 °F -9.5 °F -2.2 °F 62% 30.20 in 10.0 mi West 17.3 mph 23.0 mph N/A   Clear
1:35 PM 8.6 °F -10.5 °F -2.2 °F 62% 30.20 in 7.0 mi West 19.6 mph - N/A   Clear
1:55 PM 8.6 °F -10.0 °F -2.2 °F 62% 30.20 in 10.0 mi West 18.4 mph 24.2 mph N/A   Clear
2:16 PM 8.6 °F -10.5 °F -2.2 °F 62% 30.20 in 10.0 mi West 19.6 mph - N/A   Clear
2:35 PM 8.6 °F -10.0 °F -2.2 °F 62% 30.20 in 10.0 mi West 18.4 mph - N/A   Clear
2:55 PM 8.6 °F -8.9 °F -2.2 °F 62% 30.20 in 10.0 mi West 16.1 mph - N/A   Clear
3:16 PM 8.6 °F -8.9 °F -0.4 °F 67% 30.21 in 10.0 mi West 16.1 mph 23.0 mph N/A   Clear
3:35 PM 8.6 °F -9.5 °F -0.4 °F 67% 30.21 in 10.0 mi West 17.3 mph - N/A   Clear
3:55 PM 8.6 °F -7.7 °F -0.4 °F 67% 30.20 in 10.0 mi West 13.8 mph - N/A   Clear
4:16 PM 8.6 °F -7.7 °F -0.4 °F 67% 30.20 in 10.0 mi West 13.8 mph - N/A   Clear
4:35 PM 8.6 °F -8.3 °F -0.4 °F 67% 30.21 in 10.0 mi West 15.0 mph - N/A   Clear
4:55 PM 8.6 °F -7.0 °F -0.4 °F 67% 30.21 in 10.0 mi West 12.7 mph 19.6 mph N/A   Clear
5:16 PM 8.6 °F -7.7 °F -0.4 °F 67% 30.21 in 10.0 mi West 13.8 mph - N/A   Clear
5:35 PM 6.8 °F -7.8 °F -2.2 °F 67% 30.21 in 10.0 mi West 10.4 mph - N/A   Clear
5:55 PM 3.2 °F -10.3 °F -2.2 °F 78% 30.22 in 10.0 mi West 8.1 mph - N/A   Clear
6:16 PM 1.4 °F -14.5 °F -2.2 °F 85% 30.22 in 10.0 mi West 10.4 mph - N/A   Clear
6:35 PM 1.4 °F -17.6 °F -2.2 °F 85% 30.23 in 10.0 mi West 15.0 mph - N/A   Clear
6:55 PM 1.4 °F -16.9 °F -4.0 °F 78% 30.23 in 10.0 mi West 13.8 mph - N/A   Clear
7:16 PM 1.4 °F -16.1 °F -4.0 °F 78% 30.24 in 10.0 mi West 12.7 mph 18.4 mph N/A   Clear
7:35 PM -0.4 °F -18.4 °F -5.8 °F 78% 30.23 in 10.0 mi West 12.7 mph - N/A   Clear
7:55 PM -0.4 °F -17.6 °F -5.8 °F 78% 30.23 in 10.0 mi West 11.5 mph 18.4 mph N/A   Clear
8:16 PM -0.4 °F -18.4 °F -5.8 °F 78% 30.24 in 10.0 mi West 12.7 mph - N/A   Clear
8:35 PM -0.4 °F -18.4 °F -5.8 °F 78% 30.24 in 10.0 mi West 12.7 mph - N/A   Clear
8:55 PM -2.2 °F -20.7 °F -7.6 °F 78% 30.24 in 10.0 mi West 12.7 mph - N/A   Clear
9:15 PM -2.2 °F -20.7 °F -7.6 °F 78% 30.24 in 10.0 mi West 12.7 mph - N/A   Clear
9:35 PM -2.2 °F -20.7 °F -7.6 °F 78% 30.24 in 10.0 mi West 12.7 mph 17.3 mph N/A   Clear
9:55 PM -4.0 °F -22.1 °F -9.4 °F 78% 30.25 in 10.0 mi WNW 11.5 mph - N/A   Clear
10:15 PM -5.8 °F -23.4 °F -9.4 °F 84% 30.25 in 10.0 mi WNW 10.4 mph - N/A   Clear
10:35 PM -5.8 °F -22.4 °F -9.4 °F 84% 30.25 in 10.0 mi WNW 9.2 mph - N/A   Clear
10:55 PM -5.8 °F -22.4 °F -11.2 °F 77% 30.25 in 10.0 mi WNW 9.2 mph - N/A   Clear
11:15 PM -5.8 °F -21.2 °F -11.2 °F 77% 30.25 in 10.0 mi WNW 8.1 mph - N/A   Clear
11:35 PM -7.6 °F -24.6 °F -11.2 °F 84% 30.25 in 10.0 mi West 9.2 mph - N/A   Clear
11:55 PM -7.6 °F -24.6 °F -11.2 °F 84% 30.25 in 10.0 mi WNW 9.2 mph - N/A   Clear